Location: McMath-Hulbert Observatory
(42.6964°N, 83.3187°W)
Time: 16:50:30
(UTC-04:00)

Daily predictions for brighter satellites

Satellite Brightness Start Highest point End
(mag) Time Altitude Azimuth Time Altitude Azimuth Time Altitude Azimuth
Nadezhda 4 Rocket 4.1 20:47:00 10° N 20:53:18 86° E 20:59:37 10° S
SL-16 R/B 3.0 20:50:04 10° SSE 20:54:49 28° ESE 20:59:35 10° NE
ATLAS 5 CENTAUR R/B 3.8 20:55:31 10° NNW 21:00:14 24° NE 21:05:17 10° E
Cosmos 1634 Rocket 4.2 20:56:25 10° SSE 21:02:29 53° E 21:08:38 10° NNE
Cosmos 1092 Rocket 4.1 20:56:41 10° N 21:03:03 74° E 21:09:22 10° SSE
Helios 1B rocket 3.0 21:00:22 10° NNE 21:04:11 36° E 21:07:58 10° SSE
Cosmos 1707 Rocket 3.6 21:00:09 10° S 21:04:33 67° E 21:08:57 10° NNE
Lacrosse 4 Rocket 2.3 21:00:46 10° NNW 21:04:45 36° NE 21:08:46 10° ESE
ERS-1 Rocket 4.3 21:02:33 10° ESE 21:06:25 23° ENE 21:10:18 10° NNE
USA 186 1.4 21:03:58 10° SSE 21:06:38 66° ENE 21:09:31 10° N
ERBS 2.4 21:06:07 10° NW 21:09:34 67° NE 21:12:44 12° SE
Cosmos 1733 Rocket 4.1 21:06:35 10° NNE 21:10:27 29° ENE 21:14:14 10° SE
ALOS 3.9 21:06:15 10° SSW 21:10:32 36° W 21:14:51 10° NNW
Cosmos 1486 Rocket 4.1 21:06:58 10° NNW 21:12:13 86° WSW 21:17:28 10° SSE
SAR-Lupe-4 3.8 21:08:49 10° SSE 21:12:17 51° ENE 21:15:48 10° N
Cosmos 1939 Rocket 3.6 21:08:49 10° SE 21:12:33 36° ENE 21:16:14 10° N
CENTAUR R/B 3.6 21:06:40 10° WSW 21:12:37 51° NW 21:19:25 10° NNE
SeaSat 1 4.1 21:17:23 10° E 21:20:51 20° NE 21:24:21 10° N
Cosmos 1869 Rocket 4.2 21:17:19 10° NNW 21:21:46 61° W 21:26:09 10° S
Resurs 1-3 4.3 21:17:51 10° S 21:22:09 55° W 21:26:29 10° NNW
Cosmos 2227 4.4 21:16:45 10° NNW 21:22:32 78° WSW 21:28:12 10° SSE
Cosmos 1408 2.8 21:20:28 10° N 21:24:06 51° E 21:27:28 11° SSE
Atlas Centaur 2 4.0 21:21:58 10° SSW 21:27:16 22° SSE 21:31:32 15° ESE
SAR-Lupe-1 4.0 21:26:13 10° SSE 21:29:47 73° ENE 21:33:22 10° N
Molniya-1 3.4 21:29:39 10° SW 21:31:22 51° NW 21:33:38 10° NNE
Abrixas rocket 2.8 21:28:37 10° WSW 21:31:53 56° NNW 21:35:07 10° ENE
Cosmos 2242 Rocket 3.5 21:31:36 10° S 21:36:07 71° E 21:40:35 10° NNE
Cosmos 1627 Rocket 4.5 21:31:00 10° N 21:37:15 87° E 21:43:24 10° S
Cosmos 1455 3.9 21:34:01 10° SW 21:37:32 36° WNW 21:41:04 10° N
Cosmos 2195 Rocket 4.5 21:34:39 10° N 21:40:48 86° W 21:46:56 10° S
Helios 1A 3.4 21:37:31 10° S 21:41:43 66° WSW 21:45:58 10° NNW
Cosmos 1503 Rocket 4.0 21:38:18 10° NNW 21:43:37 88° WSW 21:48:10 14° SSE
Cosmos 2279 Rocket 4.0 21:37:33 10° S 21:43:43 66° E 21:49:53 10° NNE
Cosmos 1354 Rocket 4.1 21:42:16 10° NNW 21:47:35 81° WSW 21:52:09 14° SSE
Cosmos 1869 4.2 21:46:39 10° SSW 21:50:28 50° W 21:54:20 10° N
Resurs 01 Rocket 4.0 21:49:57 10° SSW 21:53:29 23° W 21:57:01 10° NW
H-2A R/B 3.5 21:52:49 17° E 21:54:31 20° ENE 21:58:03 10° NNE
OAO 3 Rocket 4.0 21:50:25 10° WSW 21:54:50 34° S 21:56:38 26° SE
SJ-11-01 4.5 21:51:18 11° S 21:55:51 71° WSW 22:00:32 10° NNW
CZ-4B DEB 3.6 21:54:21 14° S 21:56:46 44° W 21:59:42 10° NNW
YAOGAN 6 2.5 21:56:56 28° SSE 21:58:45 73° ENE 22:02:23 10° N
Cosmos 1428 Rocket 4.4 21:53:35 10° N 21:59:44 82° E 22:04:53 15° S
Meteor 1-29 3.8 21:57:19 10° N 22:00:43 52° WNW 22:04:06 10° SSW
FALCON 9 R/B 2.8 22:00:37 10° SW 22:00:47 11° SSW 22:00:47 11° SSW
Cosmos 968 Rocket 4.0 21:59:41 10° N 22:04:40 45° ENE 22:06:50 29° ESE
Cosmos 2263 Rocket 2.1 21:59:37 10° NNW 22:05:13 81° ENE 22:08:25 26° SSE
Cosmos 2180 Rocket 4.5 21:59:30 10° S 22:05:54 81° E 22:12:15 10° N
SPOT 5 3.4 22:04:11 29° ESE 22:06:00 40° ENE 22:10:23 10° N
COSMOS 2428 4.1 22:10:12 20° E 22:10:12 20° E 22:13:23 10° NE
Meteor 2-10 Rocket 3.8 22:05:36 15° S 22:10:19 61° E 22:16:02 10° NNE
Cosmos 2322 Rocket 2.5 22:05:14 10° SSW 22:10:49 69° WNW 22:16:27 10° NNE
Envisat 3.9 22:06:24 10° S 22:11:15 46° W 22:16:09 10° NNW
Cosmos 1933 3.4 22:11:29 13° SSW 22:15:02 75° W 22:19:04 10° N
Sich 1 Rocket 3.6 22:10:39 10° N 22:15:05 60° E 22:16:31 39° SE
Cosmos 2360 Rocket 2.2 22:15:49 11° S 22:21:11 58° ESE 22:26:44 10° NNE
BREEZE-M DEB (TANK) 4.2 22:19:42 10° WNW 22:23:25 65° N 22:35:33 10° E
Cosmos 1825 4.1 22:20:47 10° NNW 22:24:02 27° W 22:27:16 10° SSW
H-2A R/B 3.6 22:23:59 21° ENE 22:24:05 21° ENE 22:27:18 10° NNE
USA 234 3.8 22:22:53 24° SSE 22:26:40 50° SW 22:33:00 10° WNW
Cosmos 1908 Rocket 3.4 22:23:18 10° N 22:27:39 83° E 22:28:49 48° SSE
Cosmos 2322 3.7 22:25:27 22° S 22:29:02 58° ESE 22:34:39 10° NNE
NOAA 11 4.1 22:28:04 33° SSE 22:30:40 89° E 22:36:12 10° NNW
USA 245 4.2 22:30:44 37° SSE 22:33:06 73° ENE 22:38:16 10° N
SL-16 R/B 3.4 22:33:19 10° SW 22:38:41 43° WNW 22:44:07 10° NNE
SPOT 1/Viking Rocket 3.6 22:40:22 49° SE 22:41:33 64° ENE 22:46:44 10° N
Cosmos 1782 Rocket 3.4 22:37:20 10° N 22:41:42 68° E 22:41:59 66° ESE
Lacrosse 4 Rocket 3.4 22:39:48 10° NW 22:43:17 24° WSW 22:45:08 18° SW
MetOp-B 4.2 22:42:09 36° S 22:44:22 72° WSW 22:49:44 10° NNW
ERS-1 Rocket 3.8 22:42:10 23° SSW 22:44:54 45° W 22:49:44 10° NNW
Okean 2 Rocket 3.3 22:40:32 10° N 22:44:58 53° ENE 22:44:59 53° E
ATLAS 5 CENTAUR R/B 2.4 22:39:35 10° NW 22:45:36 84° SW 22:47:45 45° SSE
Cosmos 2333 Rocket 4.1 22:52:12 16° ENE 22:52:12 16° ENE 22:53:50 10° NE
Cosmos 1782 4.2 22:53:34 29° NE 22:53:34 29° NE 22:55:52 10° NNE
Milstar 3 4.2 22:48:24 10° WSW 22:53:09 19° SSW 22:53:09 19° SSW
ARGOS 3.2 22:52:58 46° S 22:54:34 76° WSW 22:59:58 10° NNW
Landsat 7 4.0 22:54:28 53° ENE 22:54:34 54° ENE 22:59:13 10° N
Cosmos 2237 Rocket 4.4 22:59:45 12° ENE 22:59:45 12° ENE 23:00:17 10° ENE
SeaSat 1 2.5 22:57:02 56° S 22:57:54 70° WSW 23:02:51 10° NNW
Cosmos 2278 Rocket 3.6 22:54:32 10° N 22:59:03 24° NE 23:00:07 22° ENE
Cosmos 1777 Rocket 3.8 23:01:00 10° NNW 23:06:18 77° ENE 23:06:40 73° ESE
Okean 1-7 3.1 23:07:56 75° WNW 23:07:56 75° WNW 23:12:21 10° N
Cosmos 1844 Rocket 2.7 23:03:05 10° NNW 23:08:37 59° ENE 23:09:04 57° E
Abrixas rocket 4.2 23:06:09 10° WNW 23:08:39 27° NNW 23:08:39 27° NNW
Terra 2.2 23:10:04 52° NE 23:10:04 52° NE 23:14:21 10° N
SL-08 RB Rocket 3.9 23:09:48 59° WSW 23:10:09 61° W 23:14:41 10° NNW
USA 229 DEB 3.6 23:05:20 10° SSW 23:12:10 88° SE 23:19:10 10° NE
USA 229 3.6 23:05:26 10° SSW 23:12:15 88° SE 23:19:15 10° NE
Atlas Centaur 2 3.8 23:09:08 10° SW 23:14:12 31° SSW 23:14:12 31° SSW
Cosmos 2151 Rocket 4.3 23:14:02 10° N 23:17:24 45° NNE 23:17:24 45° NNE
Cosmos 2221 Rocket 4.3 23:21:33 45° W 23:21:57 47° WNW 23:26:14 10° N
SL-19 R/B 4.3 23:18:04 10° NNE 23:24:11 68° ESE 23:24:12 68° ESE
Cosmos 2219 Rocket 3.0 23:28:37 38° ENE 23:28:37 38° ENE 23:32:23 10° NE
CZ-4C R/B 3.6 23:23:14 10° NNW 23:29:51 43° NE 23:32:09 35° E
Meteor 1-10 Rocket 4.2 23:29:38 77° S 23:30:07 90° W 23:36:02 10° N
DMSP B5D2-2 4.0 23:26:04 10° NNE 23:31:12 84° N 23:31:12 84° N
CARTOSAT-1 4.3 23:32:34 51° NNW 23:32:34 51° NNW 23:35:51 10° NNW
Cosmos 1867 4.4 23:27:33 10° NW 23:32:37 40° WSW 23:32:45 40° WSW
H-2A R/B 2.4 23:33:27 52° WSW 23:33:34 52° W 23:38:25 10° NNW
Meteor 1-11 Rocket 3.9 23:28:08 10° N 23:33:08 56° NE 23:33:08 56° NE
Cosmos 1244 Rocket 4.5 23:30:58 10° N 23:37:12 75° W 23:37:58 66° SSW
ASTEX 1 3.7 23:43:30 66° NNW 23:43:30 66° NNW 23:47:51 10° N
Cosmos 1553 Rocket 3.9 23:48:00 83° E 23:48:00 83° E 23:54:16 10° N
Cosmos 2263 Rocket 4.4 23:45:40 10° WNW 23:48:22 14° W 23:50:08 12° WSW
Geosat 4.3 23:45:43 10° NNE 23:50:29 64° NW 23:50:29 64° NW
H-2A R/B 4.4 23:12:25 10° W 23:50:48 36° SSW 23:51:40 36° SSW
COSMOS 2428 3.1 23:52:07 52° W 23:53:02 58° WNW 23:58:41 10° NNE
SL-08 R/B 4.3 23:46:55 10° N 23:53:02 87° WNW 23:53:02 87° WNW
